Date String (YYYY-MM-DD hh:mm:ss) UTC,Instrument flags,Ambient pressure (hPa),Sample flow (lpm),Bypass flow (lpm),Sample temperature (°C),Ambient temperature (°C),ASC tube jacket temperature (°C),LED temperature (°C),Box temperature (°C),Sample RH (%),Span deviation,Mass concentration (μg/m³),Mass concentration (μg/m³),Mass concentration (μg/m³)
DateTimeUTC,F1_M11,P_M11,Q1_M11,Q2_M11,T1_M11,T2_M11,T3_M11,T4_M11,T5_M11,U1_M11,ZSPAN_M11,X0_M11,X2_M11,X1_M11
2022-02-01 10:00:00,,0820.2,5.00,0.00,21.2,21.1,00.0,30.4,22.7,11.0,0000.0,0010.82,0003.25,0001.74
2022-02-01 10:01:00,,0820.2,4.99,0.00,21.1,20.8,00.0,30.4,22.5,11.1,0000.0,0011.01,0003.20,0001.72
2022-02-01 10:02:00,,0820.3,5.02,0.00,21.0,20.5,00.0,30.3,22.4,11.1,0000.0,0010.40,0003.19,0001.72
2022-02-01 10:03:00,,0820.3,5.00,0.00,21.0,20.5,00.0,30.3,22.4,11.2,0000.0,0009.86,0003.14,0001.71
2022-02-01 10:04:00,,0820.3,5.00,0.00,21.1,21.4,00.0,30.3,22.8,11.1,0000.0,0009.31,0003.09,0001.72
2022-02-01 10:05:00,,0820.3,4.98,0.00,21.3,22.2,00.0,30.4,23.1,10.9,0000.0,0009.86,0003.08,0001.70
2022-02-01 10:06:00,,0820.3,5.00,0.00,21.5,22.8,00.0,30.4,23.4,10.7,0000.0,0009.86,0003.07,0001.68
2022-02-01 10:07:00,,0820.3,5.01,0.00,21.5,22.5,00.0,30.4,23.2,10.7,0000.0,0008.89,0003.10,0001.65
2022-02-01 10:08:00,,0820.3,5.01,0.00,21.4,22.0,00.0,30.4,23.0,10.5,0000.0,0009.15,0003.11,0001.64
2022-02-01 10:09:00,,0820.3,5.00,0.00,21.3,21.6,00.0,30.4,22.8,10.6,0000.0,0009.49,0003.11,0001.62
2022-02-01 10:10:00,,0820.3,5.00,0.00,21.2,21.2,00.0,30.4,22.7,10.6,0000.0,0009.77,0003.09,0001.60
2022-02-01 10:11:00,,0820.3,5.00,0.00,21.1,20.8,00.0,30.3,22.5,10.6,0000.0,0009.72,0003.05,0001.58
2022-02-01 10:12:00,,0820.3,5.02,0.00,21.0,20.5,00.0,30.3,22.4,10.6,0000.0,0010.33,0003.10,0001.56
2022-02-01 10:13:00,,0820.4,4.99,0.00,21.0,20.4,00.0,30.3,22.3,10.7,0000.0,0011.13,0003.10,0001.54
2022-02-01 10:14:00,,0820.4,5.01,0.00,21.1,21.2,00.0,30.3,22.7,10.6,0000.0,0011.28,0003.13,0001.53
2022-02-01 10:15:00,,0820.4,5.01,0.00,21.3,22.1,00.0,30.3,23.1,10.5,0000.0,0011.52,0003.20,0001.49
2022-02-01 10:16:00,,0820.4,4.99,0.00,21.4,22.7,00.0,30.4,23.4,10.4,0000.0,0011.36,0003.21,0001.48
2022-02-01 10:17:00,,0820.4,5.00,0.00,21.5,22.5,00.0,30.4,23.3,10.1,0000.0,0011.00,0003.20,0001.47
2022-02-01 10:18:00,,0820.4,5.01,0.00,21.4,21.9,00.0,30.4,23.0,10.1,0000.0,0011.17,0003.21,0001.46
2022-02-01 10:19:00,,0820.4,5.00,0.00,21.3,21.5,00.0,30.4,22.8,10.1,0000.0,0011.46,0003.20,0001.45
2022-02-01 10:20:00,,0820.5,5.00,0.00,21.2,21.1,00.0,30.4,22.6,10.1,0000.0,0011.31,0003.20,0001.45
2022-02-01 10:21:00,,0820.5,5.01,0.00,21.1,20.7,00.0,30.3,22.4,10.1,0000.0,0012.07,0003.24,0001.46
2022-02-01 10:22:00,,0820.5,4.99,0.00,21.0,20.3,00.0,30.3,22.3,10.1,0000.0,0013.23,0003.23,0001.44
2022-02-01 10:23:00,,0820.6,5.01,0.00,20.9,20.1,00.0,30.2,22.2,10.3,0000.0,0012.31,0003.18,0001.42
2022-02-01 10:24:00,,0820.6,5.00,0.00,20.9,20.9,00.0,30.2,22.5,10.1,0000.0,0011.89,0003.16,0001.40
2022-02-01 10:25:00,,0820.7,5.00,0.00,21.1,21.8,00.0,30.3,22.9,10.0,0000.0,0012.38,0003.15,0001.38
2022-02-01 10:26:00,,0820.7,4.99,0.00,21.3,22.5,00.0,30.3,23.2,09.9,0000.0,0012.55,0003.10,0001.39
2022-02-01 10:27:00,,0820.7,5.01,0.00,21.4,22.4,00.0,30.3,23.2,09.8,0000.0,0014.07,0003.08,0001.39
2022-02-01 10:28:00,,0820.6,5.00,0.00,21.3,21.9,00.0,30.3,22.9,09.8,0000.0,0014.38,0003.07,0001.38
2022-02-01 10:29:00,,0820.6,5.00,0.00,21.2,21.4,00.0,30.3,22.7,09.8,0000.0,0014.41,0003.09,0001.37
2022-02-01 10:30:00,,0820.7,4.99,0.00,21.1,21.0,00.0,30.3,22.5,09.9,0000.0,0014.99,0003.13,0001.35
2022-02-01 10:31:00,,0820.7,4.99,0.00,21.0,20.6,00.0,30.2,22.3,09.8,0000.0,0015.70,0003.09,0001.34
2022-02-01 10:32:00,,0820.7,5.01,0.00,20.9,20.3,00.0,30.2,22.2,09.9,0000.0,0015.35,0003.02,0001.31
2022-02-01 10:33:00,,0820.8,5.00,0.00,21.0,21.0,00.0,30.2,22.5,09.8,0000.0,0015.00,0003.02,0001.31
2022-02-01 10:34:00,,0820.8,4.99,0.00,21.1,21.9,00.0,30.3,22.9,09.6,0000.0,0015.41,0003.01,0001.32
2022-02-01 10:35:00,,0820.9,5.01,0.00,21.3,22.6,00.0,30.3,23.3,09.5,0000.0,0015.92,0003.03,0001.33
2022-02-01 10:36:00,,0820.9,4.99,0.00,21.4,22.5,00.0,30.3,23.2,09.5,0000.0,0016.24,0002.99,0001.32
2022-02-01 10:37:00,,0820.8,5.01,0.00,21.3,21.9,00.0,30.3,22.9,09.6,0000.0,0016.72,0003.03,0001.31
2022-02-01 10:38:00,,0820.9,5.00,0.00,21.2,21.4,00.0,30.3,22.7,09.7,0000.0,0015.27,0002.98,0001.28
2022-02-01 10:39:00,,0820.9,4.99,0.00,21.1,20.9,00.0,30.3,22.5,09.6,0000.0,0015.66,0002.95,0001.28
2022-02-01 10:40:00,,0821.0,5.02,0.00,21.0,20.5,00.0,30.2,22.3,09.7,0000.0,0015.95,0003.00,0001.29
2022-02-01 10:41:00,,0821.0,4.99,0.00,20.9,20.6,00.0,30.2,22.3,09.7,0000.0,0015.45,0002.93,0001.30
2022-02-01 10:42:00,,0821.0,5.01,0.00,21.0,21.4,00.0,30.2,22.7,09.7,0000.0,0015.22,0002.93,0001.31
2022-02-01 10:43:00,,0821.0,5.00,0.00,21.2,22.3,00.0,30.3,23.1,09.6,0000.0,0015.74,0002.91,0001.32
2022-02-01 10:44:00,,0821.0,5.00,0.00,21.4,22.7,00.0,30.3,23.3,09.5,0000.0,0015.62,0002.98,0001.32
2022-02-01 10:45:00,,0821.0,5.01,0.00,21.4,22.3,00.0,30.3,23.1,09.4,0000.0,0015.50,0002.98,0001.31
2022-02-01 10:46:00,,0821.0,4.99,0.00,21.3,21.8,00.0,30.3,22.8,09.3,0000.0,0015.22,0002.96,0001.30
2022-02-01 10:47:00,,0821.0,5.00,0.00,21.2,21.2,00.0,30.3,22.6,09.4,0000.0,0014.12,0002.91,0001.31
2022-02-01 10:48:00,,0821.0,5.02,0.00,21.1,20.8,00.0,30.2,22.4,09.4,0000.0,0013.24,0002.88,0001.31
2022-02-01 10:49:00,,0821.0,4.99,0.00,21.0,20.5,00.0,30.2,22.2,09.4,0000.0,0014.35,0002.92,0001.31
2022-02-01 10:50:00,,0821.0,5.02,0.00,20.9,20.2,00.0,30.1,22.2,09.4,0000.0,0015.66,0002.99,0001.31
2022-02-01 10:51:00,,0821.1,4.99,0.00,20.9,20.8,00.0,30.2,22.4,09.3,0000.0,0015.79,0002.89,0001.30
2022-02-01 10:52:00,,0821.1,4.99,0.00,21.1,21.7,00.0,30.2,22.8,09.3,0000.0,0015.82,0002.84,0001.28
2022-02-01 10:53:00,,0821.2,5.00,0.00,21.3,22.5,00.0,30.3,23.2,09.2,0000.0,0015.52,0002.79,0001.27
2022-02-01 10:54:00,,0821.1,5.00,0.00,21.5,23.0,00.0,30.3,23.4,09.1,0000.0,0014.47,0002.81,0001.27
2022-02-01 10:55:00,,0821.1,4.99,0.00,21.5,22.5,00.0,30.3,23.2,09.0,0000.0,0013.72,0002.74,0001.27
2022-02-01 10:56:00,,0821.1,5.00,0.00,21.3,21.9,00.0,30.3,22.9,09.1,0000.0,0013.48,0002.71,0001.26
2022-02-01 10:57:00,,0821.1,5.00,0.00,21.2,21.4,00.0,30.3,22.7,09.0,0000.0,0013.05,0002.66,0001.26
2022-02-01 10:58:00,,0821.1,5.01,0.00,21.1,21.0,00.0,30.3,22.5,08.9,0000.0,0013.13,0002.73,0001.24
2022-02-01 10:59:00,,0821.2,5.00,0.00,21.0,20.6,00.0,30.2,22.3,09.1,0000.0,0013.21,0002.69,0001.23
